Weather History for Asheville, NC

Change the Weather History Date:

Tuesday, October 16, 2007

  Actual Average Record
Temperature  
Mean Temperature 60 °F 56 °F  
Max Temperature 69 °F 68 °F 87 °F (1897)
Min Temperature 50 °F 44 °F 29 °F (1939)
Degree Days  
Heating Degree Days 5 9  
Month to date heating degree days 68 110  
Since 1 July heating degree days 102 167  
Cooling Degree Days 0 0  
Month to date cooling degree days 32 7  
Year to date cooling degree days 978 859  
Growing Degree Days 8 (Base 50)    
Moisture  
Dew Point 52 °F    
Average Humidity 81    
Maximum Humidity 93    
Minimum Humidity 68    
Precipitation  
Precipitation 0.00 in 0.09 in 2.43 in (1964)
Month to date precipitation 1.36 1.55  
Year to date precipitation 27.18 36.97  
Snow  
Snow 0.00 in 0.00 in 0.00 in ()
Month to date snowfall 0.0 0.0  
Since 1 July snowfall 0.0 0.0  
Since 1 September snowfall 0.0 0.0  
Snow Depth -    
Sea Level Pressure  
Sea Level Pressure 30.14 in    
Wind  
Wind Speed 3 mph (South)    
Max Wind Speed 12 mph    
Max Gust Speed 14 mph    
Visibility 7 miles    
Events      
T = Trace of Precipitation, MM = Missing Value Source: NWS Daily Summary

Daily Weather History Graph

Daily Weather History Graph

Search for Another Location

Airport:

Trip Planner

Search our weather history database for the weather conditions in past years. The results will help you decide how hot, cold, wet, or windy it might be!

Date:

Astronomy

Oct. 16, 2007 Rise Set
Actual Time 7:37 AM EDT 6:53 PM EDT
Civil Twilight 7:11 AM EDT 7:19 PM EDT
Nautical Twilight 6:41 AM EDT 7:49 PM EDT
Astronomical Twilight 6:12 AM EDT 8:18 PM EDT
Moon 12:48 PM EDT (10/16) 10:08 PM EDT (10/16)
Length of Visible Light 12h 08m
Length of Day
11h 16m
Waxing Crescent, 25% of the Moon is Illuminated
Oct 16
Waxing Crescent
Oct 19
First Quarter
Oct 26
Full
Nov 1
Last Quarter
Nov 9
New

Hourly Weather History & Observations

Time (EDT) Temp. Dew Point Humidity Pressure Visibility Wind Dir Wind Speed Gust Speed Precip Events Conditions
12:54 AM 55.0 °F 50.0 °F 83% 30.13 in 10.0 mi Calm Calm - N/A   Mostly Cloudy
1:54 AM 53.1 °F 50.0 °F 89% 30.13 in 8.0 mi Calm Calm - N/A   Clear
2:54 AM 51.1 °F 48.9 °F 92% 30.13 in 6.0 mi Calm Calm - N/A   Clear
3:52 AM 51.8 °F 48.2 °F 88% 30.17 in 4.0 mi Calm Calm - N/A   Mostly Cloudy
3:54 AM 51.1 °F 48.9 °F 92% 30.12 in 4.0 mi Calm Calm - N/A   Mostly Cloudy
4:13 AM 51.8 °F 48.2 °F 88% 30.17 in 5.0 mi Calm Calm - N/A   Mostly Cloudy
4:54 AM 50.0 °F 48.0 °F 93% 30.13 in 6.0 mi SSW 3.5 mph - N/A   Overcast
5:16 AM 50.0 °F 48.2 °F 94% 30.18 in 5.0 mi WSW 3.5 mph - N/A   Overcast
5:54 AM 51.1 °F 48.9 °F 92% 30.13 in 6.0 mi Calm Calm - N/A   Mostly Cloudy
6:37 AM 51.8 °F 48.2 °F 88% 30.19 in 6.0 mi Calm Calm - N/A   Overcast
6:54 AM 52.0 °F 48.9 °F 89% 30.15 in 7.0 mi SE 3.5 mph - N/A   Overcast
7:44 AM 51.8 °F 48.2 °F 88% 30.18 in 6.0 mi SSW 3.5 mph - N/A   Overcast
7:54 AM 52.0 °F 48.9 °F 89% 30.14 in 5.0 mi Calm Calm - N/A   Overcast
8:04 AM 51.8 °F 48.2 °F 88% 30.18 in 6.0 mi Calm Calm - N/A   Overcast
8:17 AM 51.8 °F 50.0 °F 94% 30.17 in 6.0 mi Calm Calm - N/A   Overcast
8:50 AM 53.6 °F 50.0 °F 88% 30.19 in 7.0 mi Calm Calm - N/A   Overcast
8:54 AM 54.0 °F 50.0 °F 86% 30.16 in 7.0 mi Calm Calm - N/A   Overcast
9:34 AM 57.2 °F 51.8 °F 82% 30.19 in 8.0 mi Calm Calm - N/A   Scattered Clouds
9:54 AM 57.9 °F 52.0 °F 81% 30.16 in 7.0 mi SSE 4.6 mph - N/A   Scattered Clouds
10:54 AM 64.0 °F 57.0 °F 78% 30.15 in 8.0 mi South 8.1 mph - N/A   Mostly Cloudy
11:54 AM 66.0 °F 57.0 °F 73% 30.14 in 8.0 mi SSE 6.9 mph - N/A   Mostly Cloudy
12:54 PM 66.9 °F 57.0 °F 70% 30.13 in 10.0 mi South 6.9 mph - N/A   Overcast
1:54 PM 66.0 °F 57.0 °F 73% 30.12 in 10.0 mi South 6.9 mph - N/A   Overcast
2:54 PM 66.9 °F 57.0 °F 70% 30.10 in 10.0 mi South 8.1 mph - N/A   Clear
3:42 PM 66.2 °F 55.4 °F 68% 30.14 in 10.0 mi South 10.4 mph - N/A   Mostly Cloudy
3:45 PM 66.2 °F 55.4 °F 68% 30.14 in 10.0 mi South 9.2 mph - N/A   Mostly Cloudy
3:54 PM 66.9 °F 55.9 °F 68% 30.10 in 10.0 mi South 8.1 mph - N/A   Mostly Cloudy
4:54 PM 66.9 °F 55.9 °F 68% 30.09 in 10.0 mi SSE 5.8 mph - N/A   Mostly Cloudy
5:54 PM 66.9 °F 55.9 °F 68% 30.09 in 9.0 mi South 6.9 mph - N/A   Scattered Clouds
6:54 PM 63.0 °F 55.9 °F 78% 30.10 in 10.0 mi South 4.6 mph - N/A   Clear
7:54 PM 62.1 °F 55.9 °F 80% 30.11 in 10.0 mi Calm Calm - N/A   Overcast
8:54 PM 59.0 °F 55.9 °F 90% 30.12 in 9.0 mi South 3.5 mph - N/A   Mostly Cloudy
9:54 PM 57.9 °F 55.0 °F 90% 30.12 in 5.0 mi Calm Calm - N/A   Clear
10:54 PM 55.9 °F 54.0 °F 93% 30.13 in 4.0 mi Calm Calm - N/A   Clear
11:54 PM 54.0 °F 52.0 °F 93% 30.13 in 3.0 mi Calm Calm - N/A   Clear